Location: Newark
(52.3500°N, 175.9667°E)
Time: 15:16:47
(UTC+00:00)

Altair - All Passes

Search period start: 23 April 2021 00:00
Search period end: 03 May 2021 00:00
Orbit: 1501 x 1683 km, 47.2° (Epoch: 22 April)

Date Brightness Start Highest point End Pass type
(mag) Time Alt. Az. Time Alt. Az. Time Alt. Az.
23 Apr - 00:13:48 10° W 00:20:38 23° SW 00:27:21 10° S daylight
23 Apr - 15:34:25 10° S 15:41:24 22° SE 15:48:15 10° E visible
23 Apr - 17:35:08 10° SW 17:44:29 49° SSE 17:53:30 10° E daylight
23 Apr - 19:38:50 10° WSW 19:48:29 66° S 19:57:46 10° E daylight
23 Apr - 21:43:19 10° W 21:52:32 53° SSW 22:01:25 10° SE daylight
23 Apr - 23:48:28 10° W 23:55:37 25° SW 00:02:38 10° S daylight
24 Apr - 15:09:44 10° S 15:16:22 20° SE 15:22:54 10° E visible
24 Apr - 17:10:03 10° SW 17:19:22 47° SSE 17:28:21 10° E daylight
24 Apr - 19:13:39 10° WSW 19:23:20 66° S 19:32:39 10° E daylight
24 Apr - 21:18:07 10° W 21:27:24 55° SSW 21:36:22 10° SE daylight
24 Apr - 23:23:09 10° W 23:30:36 27° SW 23:37:53 10° S daylight
25 Apr - 14:45:06 10° S 14:51:21 19° SE 14:57:30 10° E visible
25 Apr - 16:45:01 10° SW 16:54:16 45° SSE 17:03:11 10° E daylight
25 Apr - 18:48:28 10° WSW 18:58:11 65° S 19:07:31 10° E daylight
25 Apr - 20:52:54 10° W 21:02:17 56° SSW 21:11:19 10° SE daylight
25 Apr - 22:57:52 10° W 23:05:34 29° SW 23:13:06 10° SSE daylight
26 Apr - 14:20:33 10° SSE 14:26:20 17° SE 14:32:02 10° E visible
26 Apr - 16:19:58 10° SW 16:29:08 43° SSE 16:38:02 10° E daylight
26 Apr - 18:23:17 10° WSW 18:33:02 65° S 18:42:24 10° E daylight
26 Apr - 20:27:42 10° W 20:37:10 58° SSW 20:46:15 10° ESE daylight
26 Apr - 22:32:35 10° W 22:40:32 31° SW 22:48:16 10° SSE daylight
27 Apr - 13:56:05 10° SSE 14:01:20 16° SE 14:06:30 10° E visible
27 Apr - 15:54:56 10° SSW 16:04:02 41° SSE 16:12:51 10° E visible
27 Apr - 17:58:06 10° WSW 18:07:52 64° S 18:17:16 10° E daylight
27 Apr - 20:02:30 10° W 20:12:02 60° SSW 20:21:12 10° ESE daylight
27 Apr - 22:07:19 10° W 22:15:29 33° SW 22:23:26 10° SSE daylight
28 Apr - 13:31:44 10° SSE 13:36:20 14° SE 13:40:52 10° E visible
28 Apr - 15:29:56 10° SSW 15:38:56 39° SSE 15:47:40 10° E visible
28 Apr - 17:32:56 10° WSW 17:42:43 63° S 17:52:07 10° E daylight
28 Apr - 19:37:18 10° W 19:46:54 61° SSW 19:56:07 10° ESE daylight
28 Apr - 21:42:04 10° W 21:50:26 35° SW 21:58:33 10° SSE daylight
28 Apr - 23:50:49 10° WSW 23:52:40 11° WSW 23:54:32 10° SW daylight
29 Apr - 13:07:34 10° SSE 13:11:20 13° SE 13:15:04 10° ESE visible
29 Apr - 15:04:57 10° SSW 15:13:50 37° SE 15:22:29 10° E visible
29 Apr - 17:07:46 10° WSW 17:17:33 62° SSE 17:26:59 10° E daylight
29 Apr - 19:12:06 10° W 19:21:45 62° SSW 19:31:02 10° ESE daylight
29 Apr - 21:16:49 10° W 21:25:23 37° SW 21:33:40 10° SSE daylight
29 Apr - 23:24:26 10° WSW 23:27:43 12° WSW 23:30:59 10° SW daylight
30 Apr - 12:43:45 10° SE 12:46:21 11° ESE 12:48:55 10° ESE visible
30 Apr - 14:40:01 10° SSW 14:48:45 35° SE 14:57:17 10° E visible
30 Apr - 16:42:37 10° WSW 16:52:24 61° SSE 17:01:50 10° E daylight
30 Apr - 18:46:53 10° W 18:56:37 63° S 19:05:56 10° ESE daylight
30 Apr - 20:51:35 10° W 21:00:19 39° SSW 21:08:44 10° SSE daylight
30 Apr - 22:58:32 10° W 23:02:45 14° SW 23:06:56 10° SSW daylight
01 May - 14:15:04 10° SSW 14:23:40 33° SE 14:32:04 10° E visible
01 May - 16:17:28 10° WSW 16:27:14 59° SSE 16:36:42 10° E daylight
01 May - 18:21:41 10° W 18:31:27 64° S 18:40:50 10° ESE daylight
01 May - 20:26:21 10° W 20:35:14 42° SSW 20:43:48 10° SE daylight
01 May - 22:32:50 10° W 22:37:47 15° SW 22:42:39 10° SSW daylight
02 May - 13:50:10 10° SSW 13:58:35 31° SE 14:06:50 10° E visible
02 May - 15:52:19 10° WSW 16:02:05 58° SSE 16:11:32 10° E visible
02 May - 17:56:30 10° W 18:06:18 65° S 18:15:44 10° ESE daylight
02 May - 20:01:07 10° W 20:10:09 44° SSW 20:18:51 10° SE daylight
02 May - 22:07:15 10° W 22:12:48 17° SW 22:18:15 10° SSW daylight
